"Pseudo-MPEC" for 2000-051D = NORAD 26486 = Blok DM3 No. 22L

Created 2020 Feb 5 1:57:05 UT using Find_Orb

Click here for an explanation of pseudo-MPECs

 
 Astrometry: 
     ZTF09iS* C2020 01 02.43561308 47 35.64 +64 02 25.2    ~12FM 13.68gUNEOCPI41
     ZTF09iS  C2020 01 02.43596108 47 52.61 +64 03 19.8    ~12FM 13.68gUNEOCPI41
     ZTF09iS  C2020 01 02.47508109 20 50.49 +65 21 33.5    ~12FM 12.82RUNEOCPI41
     ZTF09iS  C2020 01 02.47542809 21 08.53 +65 22 02.9    ~12FM 12.82RUNEOCPI41
     ZTF09iR* C2020 01 02.49678209 39 48.87 +65 45 38.9    ~12FM 12.87RUNEOCPI41
     ZTF09iR  C2020 01 02.49713009 40 07.32 +65 45 55.2    ~12FM 12.87RUNEOCPI41
     ZTF09iR  C2020 01 02.49775509 40 39.64 +65 46 26.2    ~12FM 12.88RUNEOCPI41
     ZTF09iR  C2020 01 02.49810209 40 58.12 +65 46 42.7    ~12FM 12.88RUNEOCPI41
     ZTF09my* C2020 01 06.49274307 22 50.14 +58 21 31.9    ~16Ht 13.29gUNEOCPI41
     ZTF09my  C2020 01 06.49309007 23 07.29 +58 23 03.0    ~16Ht 13.29gUNEOCPI41
     ZTF09my  C2020 01 06.49318307 23 12.40 +58 23 30.4    ~16Ht 13.30gUNEOCPI41
     ZTF09my  C2020 01 06.49353007 23 29.44 +58 24 59.6    ~16Ht 13.30gUNEOCPI41
     ZTF0D3g* C2020 02 04.40899309 07 20.17 +65 10 48.4    ~2517 13.73gUNEOCPI41
     ZTF0D3g  C2020 02 04.40934009 07 38.35 +65 11 11.2    ~2517 13.73gUNEOCPI41
     ZTF0D3g  C2020 02 04.41039309 08 33.52 +65 12 18.8    ~2517 13.75gUNEOCPI41
     ZTF0D3g  C2020 02 04.41074109 08 51.38 +65 12 41.1    ~2517 13.75gUNEOCPI41

Station data:
(I41) Palomar Mountain--ZTF  (N33.357340 W116.859780)  US/California. 1.2-m
   f/2.44 Oschin Schmidt + CCD.

Orbital elements:  2000-051D
   Perigee 2020 Jan 2.167465 +/- 5.86e-5 TT =  4:01:09 (JD 2458850.667465)
Epoch 2020 Jan  2.0 TT = JDT 2458850.5                        Find_Orb
M 272.119986312 +/- 0.030           (J2000 equator)
n 524.767030320 +/- 0.000112        Peri.  267.491324 +/- 0.0059
a 32856.84142 +/- 0.00467           Node    67.362951 +/- 0.0013
e   0.74192015 +/- 4.54e-5          Incl.   62.796230 +/- 0.0007
P 987.85m/0.686d           H 29.0   G  0.15   U  6.7  
q 8479.688425 +/- 1.49    Q 57233.99441 +/- 1.49
From 16 observations 2020 Jan. 2-Feb. 4; mean residual 2".212
Residuals in arcseconds: 
200102 I41 5.38+ 2.10+    200102 I41 5.82- .614+    200204 I41 .892+ .128-    
200102 I41 4.01+ 2.25+    200102 I41 5.65- 1.10+    200204 I41 1.19+ .040-    
200102 I41 .042+ .311-    200106 I41 2.50- 2.23-    200204 I41 1.82+ .116-    
200102 I41 .442+ .387-    200106 I41 3.07- 2.01-    200204 I41 .408- .230+    
200102 I41 .072- .681-    200106 I41 .811+ 1.09+    
200102 I41 .293- 1.02-    200106 I41 .659- .177-    

Ephemerides (geocentric):
Date (UTC) HH   RA              Dec         delta   r     elong  mag " sig PA
---- --------  --------------  -----------  -----  ------ -----  --- --------
2020 02 03 00  08 53 07.022   +61 05 52.49   55774 .98574 135.7 13.5 .418  35
2020 02 03 01  09 33 30.516   +62 19 55.99   57086 .98574 134.2 13.6 1.15  98
2020 02 03 02  10 15 08.191   +62 46 59.86   57216 .98574 132.3 13.7 3.09  98
2020 02 03 03  10 57 36.199   +62 26 33.32   56170 .98573 130.2 13.7 5.68 104
2020 02 03 04  11 40 25.376   +61 14 01.36   53910 .98571 127.6 13.7 9.12 112
2020 02 03 05  12 23 16.356   +58 59 02.77   50351 .98569 124.4 13.6 13.9 121
2020 02 03 06  13 06 18.236   +55 19 56.69   45339 .98566 120.3 13.5 21.2 129
2020 02 03 07  13 50 38.021   +49 27 20.00   38611 .98562 114.6 13.3 33.6 137
2020 02 03 08  14 39 46.503   +39 03 41.85   29704 .98557 105.2 13.1 61.1 145
2020 02 03 09  15 48 27.185   +14 14 07.86   17833 .98551  83.9 12.8  166 152
2020 02 03 10  01 48 50.422   -49 42 37.29    9038 .98550  65.1 12.4  519  45
2020 02 03 11  05 04 34.229   +21 19 34.03   21912 .98561 123.3 11.8 54.6  28
2020 02 03 12  05 58 38.265   +39 31 06.04   32764 .98569 133.6 12.4 12.2  34
2020 02 03 13  06 40 13.116   +48 28 11.01   40922 .98574 136.6 12.8 2.34  38
2020 02 03 14  07 18 26.083   +53 59 48.37   47076 .98578 137.3 13.1 .660  57
2020 02 03 15  07 56 09.059   +57 42 50.69   51612 .98581 136.9 13.3 1.28  55
2020 02 03 16  08 34 37.244   +60 14 38.97   54753 .98583 136.0 13.5 .823  53
2020 02 03 17  09 14 22.257   +61 51 31.22   56627 .98584 134.7 13.6 .484 116
2020 02 03 18  09 55 27.341   +62 40 13.06   57303 .98584 133.1 13.7 2.12  96
2020 02 03 19  10 37 35.225   +62 42 08.85   56806 .98583 131.2 13.7 4.39 101
2020 02 03 20  11 20 17.583   +61 54 41.20   55117 .98582 128.9 13.7 7.40 109
2020 02 03 21  12 03 08.460   +60 10 32.98   52175 .98580 126.1 13.6 11.5 117
2020 02 03 22  12 46 01.118   +57 14 25.20   47863 .98577 122.6 13.6 17.4 125
2020 02 03 23  13 29 30.441   +52 33 10.75   41974 .98574 117.8 13.4 26.8 133
2020 02 04 00  14 15 40.968   +44 44 19.66   34156 .98569 110.6 13.2 45.1 141
2020 02 04 01  15 11 29.133   +29 10 26.96   23773 .98564  97.1 12.9 95.6 149
2020 02 04 02  17 15 28.428   -25 40 37.98   10567 .98558  54.5 13??  435 150
2020 02 04 03  04 23 35.084   +02 41 58.43   15742 .98566 108.9 11.6  135  27
2020 02 04 04  05 36 04.001   +33 00 10.47   28116 .98575 129.7 12.2 23.6  32
2020 02 04 05  06 21 25.024   +44 55 06.76   37416 .98582 135.0 12.7 5.47  37
2020 02 04 06  07 00 39.875   +51 43 08.87   44439 .98586 136.6 13.0 .320  26
2020 02 04 07  07 38 23.558   +56 09 47.39   49691 .98589 136.8 13.2 1.17  54
2020 02 04 08  08 16 24.535   +59 11 44.35   53460 .98592 136.2 13.4 1.13  55
2020 02 04 09  08 55 31.672   +61 12 48.90   55910 .98593 135.1 13.5 .363  23
2020 02 04 10  09 36 00.290   +62 23 25.19   57137 .98594 133.8 13.6 1.28  98
2020 02 04 11  10 17 41.697   +62 47 09.20   57185 .98593 132.1 13.7 3.27  98
2020 02 04 12  11 00 11.321   +62 23 13.55   56054 .98592 130.1 13.7 5.90 105
2020 02 04 13  11 43 00.247   +61 06 44.05   53706 .98591 127.6 13.7 9.42 113
2020 02 04 14  12 25 50.552   +58 46 46.56   50049 .98589 124.5 13.6 14.3 121
2020 02 04 15  13 08 54.290   +55 00 28.01   44925 .98585 120.5 13.5 21.8 129
2020 02 04 16  13 53 24.553   +48 55 09.63   38061 .98581 114.7 13.3 34.8 138
2020 02 04 17  14 43 10.518   +38 01 12.17   28973 .98576 105.2 13.0 64.3 146
2020 02 04 18  15 55 06.637   +10 58 20.50   16864 .98571  82.5 12.7  184 153
2020 02 04 19  02 35 52.584   -39 54 54.46    9667 .98571  73.1 12.0  441  36
2020 02 04 20  05 08 59.037   +23 17 57.73   22793 .98582 123.1 11.9 48.3  29
2020 02 04 21  06 01 26.431   +40 21 16.52   33425 .98589 132.6 12.5 11.0  35
2020 02 04 22  06 42 37.004   +48 57 23.14   41423 .98594 135.6 12.9 1.98  39
2020 02 04 23  07 20 43.867   +54 19 00.79   47452 .98598 136.3 13.2 .752  53
2020 02 05 00  07 58 28.024   +57 55 57.85   51884 .98601 136.1 13.4 1.27  54
2020 02 05 01  08 37 00.566   +60 23 21.51   54931 .98602 135.4 13.5 .757  50